User: anonymous   Login
Location: Unspecified
(0.0000°N, 0.0000°E)
Time: 10:15:49
(UTC+02:00)
Language:

CZ-4 R/B - Orbit

View from above orbital plane
View from above orbital plane
View from above satellite
View from above satellite

Ground track
Ground track

The orbit data is extracted from the following two-line orbital elements,

1 28059U 03049C   15110.04964605  .00000406  00000-0  11028-3 0  9997
2 28059 098.6692 324.1914 0051199 129.6426 025.4961 14.52327224609122
Epoch (UTC): 20 April 2015 01:11:29
Eccentricity: 0.0051199
inclination: 98.6692°
perigee height: 682 km
apogee height: 754 km
right ascension of ascending node: 324.1914°
argument of perigee: 129.6426°
revolutions per day: 14.52327224
mean anomaly at epoch: 25.4961°
orbit number at epoch: 60912

The dashed part of the orbit path shows where the satellite is in the earth's shadow,  

DLR